Weather History for KAEX - January, 2006

Change the Weather History Date:

Monday, January 2, 2006

  Actual Average Record
Temperature  
Mean Temperature 63 °F 49 °F  
Max Temperature 77 °F 59 °F 81 °F (1952)
Min Temperature 48 °F 39 °F 15 °F (1928)
Degree Days  
Heating Degree Days 2 16  
Month to date heating degree days 2 32  
Since 1 July heating degree days 793 821  
Growing Degree Days 14 (Base 50)    
Moisture  
Dew Point 52 °F    
Average Humidity 64    
Maximum Humidity 94    
Minimum Humidity 25    
Precipitation  
Precipitation 0.00 in 0.13 in 2.10 in (1951)
Month to date precipitation 0.00 0.26  
Year to date precipitation 0.00 0.26  
Snow  
Snow 0.00 in - 0.00 in ()
Month to date snowfall 0.0  
Since 1 July snowfall 0.0  
Snow Depth 0.00 in    
Sea Level Pressure  
Sea Level Pressure 29.85 in    
Wind  
Wind Speed 12 mph (WSW)    
Max Wind Speed 20 mph    
Max Gust Speed 25 mph    
Visibility 7 miles    
Events      
T = Trace of Precipitation, MM = Missing Value Source: NWS Daily Summary

Daily Weather History Graph

Daily Weather History Graph

Search for Another Location

Airport or City:

Trip Planner

Search our weather history database for the weather conditions in past years. The results will help you decide how hot, cold, wet, or windy it might be!

Date:

Astronomy

Jan. 02, 2006 Rise Set
Actual Time 7:09 AM CST 5:19 PM CST
Civil Twilight 6:42 AM CST 5:46 PM CST
Nautical Twilight 6:12 AM CST 6:16 PM CST
Astronomical Twilight 5:43 AM CST 6:45 PM CST
Moon 9:35 AM CST (1/2) 8:24 PM CST (1/2)
Length of Visible Light 11h 03m
Length of Day
10h 09m
Waxing Crescent, 10% of the Moon is Illuminated
Jan 2
Waxing Crescent
Jan 6
First Quarter
Jan 14
Full
Jan 22
Last Quarter
Jan 29
New

Hourly Weather History & Observations

Time (CST) Temp. Dew Point Humidity Pressure Visibility Wind Dir Wind Speed Gust Speed Precip Events Conditions
12:06 AM 71.6 °F 62.6 °F 73% 29.74 in 6.0 mi SSW 13.8 mph 24.2 mph N/A   Haze
12:34 AM 69.8 °F 62.6 °F 78% 29.74 in 6.0 mi SSW 15.0 mph - N/A   Haze
12:44 AM 69.8 °F 62.6 °F 78% 29.74 in 6.0 mi SSW 13.8 mph - N/A   Haze
12:53 AM 70.0 °F 62.1 °F 76% 29.75 in 6.0 mi SSW 19.6 mph 25.3 mph N/A   Haze
1:53 AM 69.1 °F 62.1 °F 78% 29.75 in 7.0 mi SW 18.4 mph 21.9 mph N/A   Clear
2:53 AM 68.0 °F 62.1 °F 81% 29.77 in 5.0 mi SSW 13.8 mph - N/A   Haze
3:53 AM 66.9 °F 61.0 °F 81% 29.77 in 5.0 mi SW 15.0 mph - N/A   Haze
4:53 AM 64.9 °F 61.0 °F 87% 29.79 in 5.0 mi SW 9.2 mph - N/A   Clear
5:53 AM 64.0 °F 60.1 °F 87% 29.80 in 5.0 mi SW 10.4 mph - N/A   Partly Cloudy
6:53 AM 64.0 °F 60.1 °F 87% 29.82 in 4.0 mi SW 10.4 mph - N/A   Clear
7:53 AM 63.0 °F 60.1 °F 90% 29.85 in 4.0 mi WSW 8.1 mph - N/A   Partly Cloudy
8:00 AM 62.6 °F 60.8 °F 94% 29.85 in 2.5 mi WSW 9.2 mph - N/A   Partly Cloudy
8:53 AM 64.9 °F 60.1 °F 84% 29.88 in 2.5 mi WSW 9.2 mph - N/A   Haze
9:00 AM 66.2 °F 60.8 °F 83% 29.87 in 4.0 mi WSW 15.0 mph 18.4 mph N/A   Haze
9:53 AM 68.0 °F 55.9 °F 65% 29.89 in 6.0 mi WSW 13.8 mph - N/A   Haze
10:53 AM 71.1 °F 52.0 °F 51% 29.90 in 10.0 mi West 8.1 mph - N/A   Clear
11:53 AM 73.9 °F 50.0 °F 43% 29.87 in 10.0 mi WSW 10.4 mph - N/A   Clear
12:53 PM 75.9 °F 45.0 °F 33% 29.85 in 10.0 mi West 13.8 mph 18.4 mph N/A   Clear
1:53 PM 77.0 °F 41.0 °F 28% 29.84 in 10.0 mi WSW 12.7 mph 21.9 mph N/A   Clear
2:53 PM 77.0 °F 41.0 °F 28% 29.85 in 10.0 mi West 12.7 mph - N/A   Clear
3:53 PM 75.9 °F 37.9 °F 25% 29.86 in 10.0 mi West 12.7 mph 17.3 mph N/A   Clear
4:53 PM 73.0 °F 39.0 °F 29% 29.88 in 10.0 mi West 5.8 mph - N/A   Clear
5:53 PM 68.0 °F 39.0 °F 35% 29.91 in 10.0 mi West 3.5 mph - N/A   Clear
6:53 PM 64.9 °F 41.0 °F 42% 29.93 in 9.0 mi West 5.8 mph - N/A   Clear
7:53 PM 55.9 °F 41.0 °F 57% 29.94 in 10.0 mi WSW 3.5 mph - N/A   Clear
8:53 PM 54.0 °F 42.1 °F 64% 29.96 in 10.0 mi Calm Calm - N/A   Clear
10:53 PM 51.1 °F 39.9 °F 66% 30.00 in 10.0 mi Calm Calm - N/A   Clear
11:53 PM 48.0 °F 41.0 °F 77% 30.01 in 10.0 mi SSW 3.5 mph - N/A   Clear